Concord, CA

7:02 AM PDT on July 24, 2017 (GMT -0700)
Buchanan

Weather History for KCCR - July, 2013

Change the Weather History Date:

Thursday, July 11, 2013

  Actual Average Record
Temperature  
Mean Temperature 68 °F 72 °F  
Max Temperature 83 °F 87 °F 102 °F (1999)
Min Temperature 53 °F 58 °F 53 °F (2013)
Degree Days  
Heating Degree Days 0    
Month to date heating degree days 0  
Since 1 June heating degree days 11  
Since 1 July heating degree days 0  
Cooling Degree Days 3    
Month to date cooling degree days 107  
Year to date cooling degree days 366  
Since 1 June cooling degree days 274  
Growing Degree Days 18 (Base 50)    
Moisture  
Dew Point 49 °F    
Average Humidity 59    
Maximum Humidity 89    
Minimum Humidity 28    
Precipitation  
Precipitation 0.00 in - 0.00 in (2017)
Month to date precipitation 0.00  
Year to date precipitation 2.06  
Since 1 July precipitation 0.00  
Sea Level Pressure  
Sea Level Pressure 29.86 in    
Wind  
Wind Speed 11 mph (SW)    
Max Wind Speed 20 mph    
Max Gust Speed 30 mph    
Visibility 10 miles    
Events      
T = Trace of Precipitation, MM = Missing Value Source: NWS Daily Summary

Daily Weather History Graph

Daily Weather History Graph

Search for Another Location

Airport or City:

Trip Planner

Search our weather history database for the weather conditions in past years. The results will help you decide how hot, cold, wet, or windy it might be!

Date:

Astronomy

Jul. 11, 2013 Rise Set
Actual Time 5:55 AM PDT 8:32 PM PDT
Civil Twilight 5:24 AM PDT 9:02 PM PDT
Nautical Twilight 4:46 AM PDT 9:41 PM PDT
Astronomical Twilight 4:03 AM PDT 10:23 PM PDT
Moon 9:14 AM PDT (7/11) 10:19 PM PDT (7/11)
Length of Visible Light 15h 38m
Length of Day
14h 36m
Waxing Crescent, 11% of the Moon is Illuminated
Jul 11
Waxing Crescent
Jul 15
First Quarter
Jul 22
Full
Jul 29
Last Quarter
Aug 6
New

Hourly Weather History & Observations

Time (PDT) Temp. Dew Point Humidity Pressure Visibility Wind Dir Wind Speed Gust Speed Precip Events Conditions
12:53 AM 57.0 °F 48.9 °F 74% 29.88 in 10.0 mi SSW 5.8 mph - N/A   Clear
1:53 AM 55.0 °F 50.0 °F 83% 29.89 in 10.0 mi SW 9.2 mph - N/A   Clear
2:53 AM 54.0 °F 50.0 °F 86% 29.88 in 10.0 mi SSW 9.2 mph - N/A   Clear
3:53 AM 54.0 °F 48.9 °F 83% 29.88 in 10.0 mi SW 9.2 mph - N/A   Clear
4:53 AM 54.0 °F 48.9 °F 83% 29.88 in 10.0 mi SW 8.1 mph - N/A   Scattered Clouds
5:31 AM 53.6 °F 48.2 °F 82% 29.93 in 10.0 mi SW 6.9 mph - N/A   Mostly Cloudy
5:53 AM 53.1 °F 48.9 °F 86% 29.89 in 10.0 mi SW 12.7 mph - N/A   Scattered Clouds
6:53 AM 54.0 °F 48.9 °F 83% 29.89 in 10.0 mi SSW 11.5 mph - N/A   Partly Cloudy
7:53 AM 55.9 °F 48.9 °F 77% 29.89 in 10.0 mi West 4.6 mph - N/A   Clear
8:53 AM 60.1 °F 50.0 °F 69% 29.89 in 10.0 mi South 11.5 mph - N/A   Clear
9:53 AM 63.0 °F 50.0 °F 63% 29.88 in 10.0 mi South 12.7 mph - N/A   Partly Cloudy
10:53 AM 68.0 °F 50.0 °F 52% 29.88 in 10.0 mi South 11.5 mph - N/A   Partly Cloudy
11:53 AM 71.1 °F 50.0 °F 47% 29.88 in 10.0 mi South 3.5 mph - N/A   Partly Cloudy
12:53 PM 75.0 °F 51.1 °F 43% 29.86 in 10.0 mi Variable 3.5 mph - N/A   Clear
1:53 PM 79.0 °F 51.1 °F 38% 29.84 in 10.0 mi WNW 12.7 mph - N/A   Clear
2:53 PM 82.0 °F 46.9 °F 29% 29.83 in 10.0 mi West 9.2 mph - N/A   Clear
3:53 PM 81.0 °F 48.9 °F 33% 29.83 in 10.0 mi West 12.7 mph - N/A   Clear
4:53 PM 80.1 °F 48.0 °F 32% 29.82 in 10.0 mi WSW 11.5 mph - N/A   Clear
5:53 PM 75.9 °F 48.0 °F 37% 29.81 in 10.0 mi South 11.5 mph - N/A   Clear
6:53 PM 73.0 °F 48.9 °F 42% 29.81 in 10.0 mi SSW 13.8 mph - N/A   Clear
7:53 PM 66.0 °F 50.0 °F 56% 29.82 in 10.0 mi South 15.0 mph 20.7 mph N/A   Clear
8:53 PM 61.0 °F 50.0 °F 67% 29.83 in 10.0 mi South 12.7 mph - N/A   Clear
9:53 PM 59.0 °F 50.0 °F 72% 29.85 in 10.0 mi South 13.8 mph - N/A   Clear
10:53 PM 57.0 °F 50.0 °F 77% 29.86 in 10.0 mi South 13.8 mph - N/A   Clear
11:53 PM 57.0 °F 50.0 °F 77% 29.86 in 10.0 mi SSW 15.0 mph - N/A   Clear